Powrót do katalogu

STARLINK-31635

AktywnyŁącznośćVLEO
NORAD 59511·PAYLOAD·🇺🇸 United States

Wystrzelony Apr 17, 2024 z Cape Canaveral Space Force Station

Loading…

Następne Przeloty (najbliższe 24 godziny)

TLE

ŚwieżeSource: CelesTrak SupGP

Epoka: Sep 14, 2026, 20:52 UTC

1 59511C 24073A   26257.86993056 -.00022935  00000+0 -83078-3 0  2573
2 59511  43.0017 329.2623 0001688 268.0800  56.0275 15.27586420    18

Śledź STARLINK-31635 w czasie rzeczywistym z AllMySat

Download on the App Store